STARLINK-11678, 64326

Orbit data source: Space-Track

STARLINK-11678, 64326 is a payload satellite owned by SpaceX/Seattle (US) in LEO that was launched on Tue, 10 Jun 2025 UTC via an FALCON 9 launch vehicle from the Air Force Eastern Test Range (AFETR). Payload-class satellites include a variety of spacecraft equipped with specific instruments for various scientific and technological missions. These include communications satellites like Starlink; space stations such as the ISS; scientific satellites like the Hubble; Earth observation satellites from companies like Planet Labs, Umbra, and HawkEye 360; GPS; miniature CubeSats for education and research; and military/defense satellites.

Loading next visibility...
Identifier
64326, 2025-124K
Orbit
LEO
Last TLE update
12 hours ago
Origin
Manufacturer
SpaceX/Seattle
Mission
Operational spacecraft
Bus & Motor
STARLINK V2M, Unknown motor
Mass
730 kg wet, ~700 kg dry
Launch date (UTC)
2025-06-10 (1 month ago)
Launch vehicle
FALCON 9
Launch site
Air Force Eastern Test Range (AFETR)
Object type
Payload
Rocket body
Debris
Shape & HBR
Unknown
Radar Cross Section
Large (>1 m²)

Expand to show TLE details & history

TLE from 12 hours ago
0 STARLINK-11678
1 64326U 25124K   25199.83636927  .00240580  00000-0  18185-2 0  9999
2 64326  43.0008 358.9692 0002679 273.9509  86.1053 15.70919304  6984
Epoch: 2025-07-18T20:04Z
TLE epoch observation values (Epoch: 2025-07-18T20:04:22.304Z)
Latitude
Longitude
120.99416°
Altitude
355.918 km
Speed
7.698 km/s
True Right ascension
23h 55m 52s
True Declination
0° 00' 00"
Sunlit
Object was in full shadow at epoch
Visualization orbit readout
Latitude
38.93829°
Longitude
177.35042°
Altitude
359.311 km
Speed
7.698 km/s
Apparent Right ascension
06h 24m 47s
Apparent Declination
1° 05' 24"
Sunlit
Object is in daylight
Visualization observer readout
Local Sidereal Time
21:22:48
Azimuth
56.031° ENE
Elevation
-32.325°
Doppler factor
1
Orbital elements
Apogee altitude
360.055 km
Perigee altitude
356.445 km
Semi-major axis
6,736.387 km
Eccentricity
0.00027
Inclination
43.0008°
RAAN
358.9692°
Arg. of periapsis
273.9509°
True anomaly
86.13593°
Mean anomaly
86.1053°
Eccentric anomaly
86.12061°
Mean motion
3.92557 °/min
Orbital period
91.71 mins
BSTAR
0.0018185
Loading maneuver chart data...
Loading SW <> Apogee altitude chart data...
Loading historical data...
Loading historical data...
Loading historical data...
Loading historical data...
Loading historical data...
Loading historical data...
Loading historical data...
|